Regional Weather Roundup
Issued by NWS

Home | Current Version | Previous Version | Text Only | Print | Product List | Glossary On
Versions: 1 2 3 4 5 6 7 8 9 10 11 12 13 14 15 16 17 18 19 20 21 22 23 24 25 26 27 28 29 30 31 32 33 34 35 36 37 38 39 40 41 42 43 44 45 46 47 48 49 50
000
ASUS43 KMPX 250210
RWRMN
WEATHER ROUNDUP FOR MINNESOTA
NATIONAL WEATHER SERVICE TWIN CITIES/CHANHASSEN MN
900 PM CDT TUE APR 24 2018


NOTE: "FAIR" INDICATES FEW OR NO CLOUDS BELOW 12,000 FEET WITH NO
SIGNIFICANT WEATHER AND/OR OBSTRUCTIONS TO VISIBILITY. N/A MEANS
CURRENT SKY AND/OR WEATHER CONDITIONS ARE NOT AVAILABLE.

MNZ060>063-068>070-250300-
   Twin Cities Metro

CITY           SKY/WX    TMP DP  RH WIND       PRES   REMARKS
TWIN CITIES    FAIR      51  31  46 N9        30.20R
ST PAUL        FAIR      50  33  52 N7        30.21R
CRYSTAL        FAIR      50  25  37 N6        30.20R
BLAINE         CLEAR     50  30  46 N6        30.20R
LAKEVILLE      FAIR      48  30  49 N3        30.20R
EDEN PRAIRIE   FAIR      50  31  48 N5        30.20R
SOUTH ST PAUL  FAIR      51  32  47 N5        30.20R
LAKE ELMO      FAIR      48  36  61 NW5       30.21R
$$
MNZ001>005-007-008-013>017-022>024-027-028-250300-
   Northwest Minnesota

CITY           SKY/WX    TMP DP  RH WIND       PRES   REMARKS
BEMIDJI        FAIR      37  21  53 N5        30.31R
HALLOCK        FAIR      45  18  33 CALM      30.32S
ROSEAU         FAIR      41  30  65 SE6       30.31S
WARROAD        FAIR      37  28  70 CALM      30.32S
THIEF RVR FALL FAIR      44  25  47 N7        30.33S
CROOKSTON      FAIR      43  30  61 N3        30.34S
FOSSTON        FAIR      36  25  64 N7        30.33R
DETROIT LAKES  FAIR      43  30  61 N6        30.32R
MOORHEAD       FAIR      43  30  61 N7        30.34S
PARK RAPIDS    FAIR      44  23  43 N8        30.28R
MAHNOMEN       FAIR      40  27  60 N7        30.31S
$$
MNZ006-009>011-018-025>026-250300-
   North Central Minnesota

CITY           SKY/WX    TMP DP  RH WIND       PRES   REMARKS
BAUDETTE       FAIR      38  23  55 CALM      30.31S
FLAG ISLAND    FAIR      39  19  45 SE3       30.30S
INTL FALLS     FAIR      36  21  54 CALM      30.29S
WASKISH        FAIR      36  25  64 NW3       30.32R
BIG FORK       FAIR      36  21  55 CALM      30.29R
LONGVILLE      FAIR      39  23  52 CALM      30.28R
GRAND RAPIDS   FAIR      40  24  53 N8        30.28R
CRANE LAKE     FAIR      28  21  74 CALM      30.31S
ORR            FAIR      32  19  59 CALM      30.26S
COOK           FAIR      36  21  55 CALM      30.29R
WALKER         FAIR      38  22  52 N6        30.30R
$$
MNZ012-019>021-037-250300-
   Northeast Minnesota

CITY           SKY/WX    TMP DP  RH WIND       PRES   REMARKS
DULUTH         FAIR      41  25  53 N12       30.22R
ELY            FAIR      36  19  51 CALM      30.26R
HIBBING        FAIR      37  21  52 N7        30.26R
EVELETH        FAIR      37  22  54 N6        30.27R
DULUTH HARBOR  FAIR      43  30  61 N13       30.24R
TWO HARBORS    FAIR      45  27  49 N12       30.22R
SILVER BAY     FAIR      41  23  48 N6        30.22R
GRAND MARAIS     N/A     41  23  48 N17G31    30.19F
G MARAIS ARPRT FAIR      34  19  55 N10       30.22R WCI  26
$$
MNZ029>031-032-039>041-046>048-054>057-064-250300-
   West Central Minnesota

CITY           SKY/WX    TMP DP  RH WIND       PRES   REMARKS
FERGUS FALLS   FAIR      43  30  61 N8        30.29R
WHEATON        CLEAR     45  32  61 NW7       30.33R
MORRIS         CLEAR     45  36  70 NW10      30.28R
ALEXANDRIA     FAIR      47  28  47 NW12      30.27R
ELBOW LAKE     FAIR      42  31  64 N9        30.29R
WADENA         FAIR      43  28  56 NW8       30.27R
GLENWOOD       FAIR      43  32  65 NW10      30.26S
APPLETON       CLEAR     46  34  61 N14       30.28R
BENSON         CLEAR     43  34  70 N10       30.29R
ORTONVILLE     CLEAR     45  32  61 N10       30.30R
WILLMAR        FAIR      45  34  65 NW10      30.28R
$$
MNZ033>034-036-042>043-049>051-058-059-250300-
   Central Minnesota

CITY           SKY/WX    TMP DP  RH WIND       PRES   REMARKS
ST CLOUD       FAIR      47  30  51 N5        30.22R
SAUK CENTRE    FAIR      46  30  54 N7        30.25R
PAYNESVILLE    FAIR      46  35  67 NW7       30.24R
AITKIN         FAIR      39  25  56 N9        30.24R
PINE RIVER     FAIR      39  25  56 N9        30.30R
BRAINERD       FAIR      45  25  45 N10       30.26R
STAPLES        FAIR      43  25  49 N8        30.26R
LONG PRAIRIE   FAIR      45  28  53 NW8       30.26R
LITTLE FALLS   FAIR      46  18  31 N3        30.25R
LITCHFIELD     FAIR      48  30  49 N10       30.23R
BUFFALO        FAIR      48  27  43 N5        30.22R
MAPLE LAKE     FAIR      44  32  62 NW3       30.22S
HUTCHINSON     FAIR      45  36  69 NW8       30.23R
$$
MNZ037-044-045-052-053-250300-
   East Central Minnesota

CITY           SKY/WX    TMP DP  RH WIND       PRES   REMARKS
PRINCETON      FAIR      48  25  40 N7        30.23R
MORA           FAIR      45  28  53 NW7       30.23R
CAMBRIDGE      FAIR      52  30  43 NW7       30.22R
RUSH CITY      MOCLDY    46  28  48 NW3       30.21R
MOOSE LAKE     FAIR      45  27  49 N9        30.21R
HINCKLEY       FAIR      46  28  49 N8        30.22R
CLOQUET        FAIR      43  21  42 N12G18    30.23R
MCGREGOR       FAIR      41  28  60 N8        30.24R
$$
MNZ071>073-080-081-089-090-097-098-250300-
   Southwest Minnesota

CITY           SKY/WX    TMP DP  RH WIND       PRES   REMARKS
MONTEVIDEO     CLEAR     45  34  65 N13       30.27R
GRANITE FALLS  CLEAR     48  37  65 NW10G16   30.28R
CANBY          CLEAR     46  33  62 NW8       30.30R
MARSHALL       CLEAR     44  37  76 N13       30.27R
REDWOOD FALLS  CLEAR     48  34  58 NW8       30.23R
OLIVIA         CLEAR     45  34  65 NW12      30.24R
PIPESTONE      MOCLDY   N/A N/A N/A N9        30.27R
WINDOM         CLOUDY    43  27  52 NW7       30.24R
WORTHINGTON    PTCLDY    43  39  86 N8        30.25R
JACKSON        MOCLDY    43  37  81 N6        30.23S
TRACY          CLEAR     46  40  79 NW10      30.25R
SLAYTON        CLOUDY    44  38  82 NW13G18   30.26S
$$
MNZ065>067-074>077-082>085-091>093-250300-
   South Central Minnesota

CITY           SKY/WX    TMP DP  RH WIND       PRES   REMARKS
MANKATO        FAIR      48  40  73 NW9       30.22R
NEW ULM        CLOUDY    45  36  70 NW6       30.23R
ST JAMES       CLOUDY    46  41  81 NW7       30.24R
FAIRMONT       CLOUDY    47  42  83 N14       30.22R
GLENCOE        FAIR      48  38  68 CALM      30.21R
OWATONNA       MOCLDY    48  39  71 NW7       30.19R
WASECA         CLOUDY    50  41  71 NW8       30.21R
ALBERT LEA     FAIR      48  39  71 N9        30.19R
$$
MNZ078>079-086>088-094>096-250300-
   Southeast Minnesota

CITY           SKY/WX    TMP DP  RH WIND       PRES   REMARKS
ROCHESTER      FAIR      49  36  61 N15       30.17R
RED WING       FAIR      52  34  50 CALM      30.18R
STANTON        FAIR      49  38  67 N8        30.19R
DODGE CENTER   FAIR      46  37  71 N7        30.18R
WINONA         FAIR      54  34  47 N5        30.14R
AUSTIN         FAIR      48  37  66 N8        30.17R
PRESTON        FAIR      51  36  55 N15G21    30.14R
$$
ABBREVIATIONS USED IN REMARKS
   TC - TEMPERATURES IN CELSIUS
  WCI - WIND CHILL INDEX
   HX - HEAT INDEX
  VSB - VISIBILITY
$$




USA.gov is the U.S. government's official web portal to all federal, state and local government web resources and services.